Flag for Canada Weather past 2 weeks in Corner Brook, Newfoundland and Labrador, Canada

Now
43 °F

Low clouds.


Feels Like: 37 °F
Forecast: 30 / 50 °F
Wind: 10 mph from Northeast

Location: Deer Lake

Current Time: Apr 26, 2015 at 5:28:57 PM

Latest Report: Apr 26, 2015 at 4:30 PM


Visibility: 7 mi

Pressure: 29.60 "Hg

Humidity: 87%

Dew point: 39 °F

Location of Corner BrookLocation

Historic Weather in Corner Brook — Graph

°F

Corner Brook temperature yesterday

Maximum temperature yesterday: 37 °F (at 2:30 PM)
Minimum temperature yesterday: 34 °F (at 7:30 AM)
Average temperature yesterday: 36 °F

Past Weeks' High & Low Weather Summary

 TemperatureHumidityPressure
High52 °F (Apr 14, 10:30 AM)100% (Apr 24, 8:30 PM)30.44 "Hg (Apr 24, 8:30 PM)
Low10 °F (Apr 19, 6:30 AM)28% (Apr 13, 1:30 PM)29.21 "Hg (Apr 11, 4:30 PM)
Average33 °F72%29.92 "Hg
* Reported Apr 11 3:30 PM — Apr 26 3:30 PM, Corner Brook, Weather by CustomWeather, © 2015

Note: Actual official high and low records may vary slightly from our data, if they occured in-between our weather recording intervals... More about our weather records

Advertising

Corner Brook weather history for previous 24 hours

 ConditionsComfort  
Time TempWeatherWind HumidityBarometerVisibility
3:30 PM
Sun, Apr 26
41 °FFog.20 mph87%29.60 "Hg5 mi
2:30 PM39 °FFog.16 mph93%29.59 "Hg5 mi
1:30 PM37 °FLow clouds.14 mph93%29.59 "Hg7 mi
12:30 PM36 °FDrizzle. Fog.15 mph93%29.60 "Hg5 mi
11:30 AM36 °FSprinkles. Fog.14 mph93%29.61 "Hg6 mi
10:30 AM36 °FLight rain. Fog.16 mph93%29.62 "Hg6 mi
9:30 AM36 °FLight rain. Fog.16 mph93%29.62 "Hg6 mi
8:30 AM36 °FLight rain. Fog.15 mph93%29.63 "Hg5 mi
7:30 AM34 °FLight rain. Fog.9 mph100%29.64 "Hg3 mi
6:30 AM36 °FLight rain. Fog.13 mph93%29.66 "Hg5 mi
5:30 AM36 °FLow clouds.14 mph93%29.67 "Hg15 mi
4:30 AM34 °FLow clouds.7 mph100%29.69 "Hg15 mi
3:30 AM34 °FLow clouds.8 mph100%29.71 "Hg15 mi
2:30 AM34 °FFog.5 mph93%29.72 "Hg3 mi
1:30 AM34 °FFog.2 mph93%29.71 "Hg3 mi
12:30 AM34 °FDrizzle. Mostly cloudy.2 mph100%29.70 "Hg12 mi
11:30 PM
Sat, Apr 25
34 °FDrizzle. Fog.2 mph100%29.67 "Hg6 mi
10:30 PM34 °FDrizzle. Fog.No wind100%29.65 "Hg3 mi
9:30 PM36 °FDrizzle. Fog.2 mph100%29.65 "Hg5 mi
8:30 PM36 °FDrizzle. Fog.8 mph100%29.59 "Hg3 mi
7:30 PM36 °FDrizzle. Fog.9 mph100%29.55 "Hg3 mi
6:30 PM36 °FDrizzle. Fog.10 mph100%29.51 "Hg5 mi
5:30 PM36 °FDrizzle. Fog.12 mph93%29.50 "Hg3 mi
Weather by CustomWeather, © 2015

See weather overviewHow to use our weather pages